Regional Weather Roundup
Issued by NWS

Home | Current Version | Previous Version | Text Only | Print | Product List | Glossary On
Versions: 1 2 3 4 5 6 7 8 9 10 11 12 13 14 15 16 17 18 19 20 21 22 23 24 25 26 27 28 29 30 31 32 33 34 35 36 37 38 39 40 41 42 43 44 45 46 47 48 49 50
471
ASUS46 KSTO 251015
RWRCA

NORTHERN AND CENTRAL CA REGIONAL WEATHER ROUNDUP
NATIONAL WEATHER SERVICE SACRAMENTO CA
300 AM PDT SAT MAR 25 2017

NOTE: FAIR INDICATES FEW OR NO CLOUDS BELOW 12,000 FEET WITH NO
SIGNIFICANT WEATHER AND/OR OBSTRUCTIONS TO VISIBILITY.

CAZ001-003-251100-
NORTHWEST AREA

CITY           SKY/WX    TMP DP  RH WIND       PRES   REMARKS
CRESCENT CITY  LGT RAIN  49  47  93 N3        30.18F
UKIAH          CLOUDY    47  45  93 CALM      30.18F
$$

CAZ006-505>513-251100-
BAY AREA

CITY           SKY/WX    TMP DP  RH WIND       PRES   REMARKS
SANTA ROSA     PTCLDY    46  46 100 NW3       30.16S
SAN RAFAEL     N/A       51  MM  MM MISG
NAPA           CLOUDY    54  51  90 CALM      30.16S
CONCORD        CLOUDY    54  51  90 SW3       30.16S
OAKLAND CITY   N/A      MM  MM  MM MISG
OAKLAND        CLOUDY    56  54  93 NW8       30.17R
SAN FRAN CITY  N/A       53  MM  93 MISG
SAN FRAN ARPT  CLOUDY    54  50  86 NW9       30.16S
LIVERMORE      CLOUDY    51  49  92 CALM      30.15S
HAYWARD        CLOUDY    55  50  83 E5        30.15S
REDWOOD CITY   N/A       51  MM  99 MISG
MOFFETT ARPT   CLOUDY    52  52 100 CALM      30.16S FOG
SAN JOSE ARPT  CLOUDY    54  51  90 NE3       30.15S
$$
CAZ034-037-514>518-251100-
CENTRAL COAST

CITY           SKY/WX    TMP DP  RH WIND       PRES   REMARKS
WATSONVILLE    LGT RAIN  53  53 100 CALM      30.15S FOG
SALINAS        LGT RAIN  54  54 100 CALM      30.14S FOG
MONTEREY       LGT RAIN  55  54  96 SW3       30.14F FOG
SAN LUIS OBISP LGT RAIN  55  52  89 SE6       30.14F
SANTA MARIA    CLOUDY    54  54 100 CALM      30.15F
$$
CAZ015-016-251100-
NORTHERN SACRAMENTO VALLEY

CITY           SKY/WX    TMP DP  RH WIND       PRES   REMARKS
REDDING        CLOUDY    50  49  96 CALM      30.17S
RED BLUFF      CLOUDY    51  49  92 CALM      30.18S
OROVILLE       CLOUDY    53  47  79 E5        30.17F
$$
CAZ016>018-251100-
SOUTHERN SACRAMENTO VALLEY

CITY           SKY/WX    TMP DP  RH WIND       PRES   REMARKS
AUBURN         CLOUDY    48  46  93 E5        30.15F
BEALE AFB      CLOUDY    52  48  87 E3        30.14S
LINCOLN        CLOUDY    50  48  93 E3        30.15S
MARYSVILLE     CLOUDY    53  49  86 NE3       30.16F
SAC INTL ARPT  CLOUDY    53  51  93 CALM      30.15S
MATHER AIRPORT CLOUDY    52  50  93 CALM      30.15
DOWNTOWN SAC   N/A       53  MM  MM MISG
SAC EXEC ARPT  CLOUDY    53  51  93 CALM      30.15F
VACAVILLE      CLOUDY    51  51 100 SW3       30.15F FOG
TRAVIS AFB     FOG       49  49  97 SW8       30.13S VSB 0
$$
CAZ019>021-251100-
SAN JOAQUIN VALLEY

CITY           SKY/WX    TMP DP  RH WIND       PRES   REMARKS
STOCKTON       CLOUDY    53  51  93 E3        30.14S
MODESTO        CLOUDY    52  50  93 E3        30.14F
MERCED         CLOUDY    52  49  89 NE3       30.14F
LEMOORE        LGT RAIN  51  50  96 E6        30.14F
FRESNO         RAIN      51  49  92 CALM      30.16S FOG
HANFORD        LGT RAIN  52  52 100 CALM      30.15F
PORTERVILLE    LGT RAIN  53  51  93 SE5       30.17S
BAKERSFIELD    LGT RAIN  56  49  77 E5        30.14F
$$
CAZ011-012-071-251100-
NORTHERN MOUNTAINS

CITY           SKY/WX    TMP DP  RH WIND       PRES   REMARKS
YREKA          PTCLDY    33  31  92 E3        30.14S
MOUNT SHASTA   FOG       36  34  92 CALM      30.12S VSB 3/4
ALTURAS        CLOUDY    38  36  92 CALM      30.12R
$$
CAZ011-012-071-251100-
SIERRA NEVADA MTNS

CITY           SKY/WX    TMP DP  RH WIND       PRES   REMARKS
BLUE CANYON    FOG       35  35 100 S5        30.13S VSB 1/4 WCI  31
TRUCKEE        CLOUDY    32  32 100 CALM      30.11S
TAHOE VLY ARPT CLOUDY    33  32  96 CALM      30.10F
MAMMOTH LAKES  FAIR      35  28  75 CALM      30.09F
$$




USA.gov is the U.S. government's official web portal to all federal, state and local government web resources and services.